When you browse on this site, cookies collect data to enhance your experience and personalize the content and advertising you see.
Visit our Privacy Policy to learn more. By continuing to use the site, you agree to this use of cookies and data.
  • In Latvia
  • List of Countries
  • For 7 days
  • Water Temperature
  • Satellite Maps
  • Weather Map
  • Weather Widgets
  • user-avatar
    Login

    Hourly Weather Megri

    Today, 18 June, Tuesday

    Time Temperature Precipitation Wind Pressure Humidity
    00:00 +18°C° 0 mm 2 mps 622 mmHg 68%
    01:00 +19°C° 0 mm 1 mps 621 mmHg 68%
    02:00 +18°C° 0 mm 1 mps 621 mmHg 69%
    03:00 +16°C° 0 mm 0 mps 621 mmHg 70%
    04:00 +16°C° 0 mm 0 mps 622 mmHg 66%
    05:00 +19°C° 0 mm 1 mps 622 mmHg 61%
    06:00 +20°C° 0 mm 1 mps 623 mmHg 57%
    07:00 +22°C° 0 mm 1 mps 623 mmHg 52%
    08:00 +23°C° 0 mm 1 mps 623 mmHg 46%
    09:00 +24°C° 0 mm 2 mps 624 mmHg 41%
    10:00 +25°C° 0 mm 2 mps 624 mmHg 37%
    11:00 +26°C° 0 mm 2 mps 624 mmHg 32%
    12:00 +27°C° 0 mm 3 mps 624 mmHg 28%
    13:00 +27°C° 0 mm 3 mps 624 mmHg 27%
    14:00 +28°C° 0 mm 3 mps 623 mmHg 26%
    15:00 +28°C° 0 mm 3 mps 623 mmHg 25%
    16:00 +27°C° 0 mm 3 mps 623 mmHg 28%
    17:00 +26°C° 0 mm 3 mps 622 mmHg 32%
    18:00 +26°C° 0 mm 2 mps 622 mmHg 36%
    19:00 +24°C° 0 mm 2 mps 622 mmHg 43%
    20:00 +21°C° 0 mm 3 mps 621 mmHg 50%
    21:00 +19°C° 0 mm 3 mps 621 mmHg 58%
    22:00 +18°C° 0 mm 3 mps 621 mmHg 60%
    23:00 +18°C° 0 mm 3 mps 621 mmHg 62%

    Tomorrow, 19 June, Wednesday

    Time Temperature Precipitation Wind Pressure Humidity
    00:00 +17°C° 0 mm 3 mps 621 mmHg 65%
    01:00 +16°C° 0 mm 2 mps 621 mmHg 66%
    02:00 +16°C° 0 mm 2 mps 620 mmHg 67%
    03:00 +15°C° 0 mm 2 mps 620 mmHg 68%
    04:00 +16°C° 0 mm 2 mps 620 mmHg 65%
    05:00 +16°C° 0 mm 2 mps 621 mmHg 63%
    06:00 +17°C° 0 mm 2 mps 621 mmHg 60%
    07:00 +18°C° 0 mm 2 mps 621 mmHg 54%
    08:00 +20°C° 0 mm 2 mps 622 mmHg 49%
    09:00 +21°C° 0 mm 3 mps 622 mmHg 43%
    10:00 +22°C° 0 mm 3 mps 623 mmHg 41%
    11:00 +24°C° 0 mm 3 mps 623 mmHg 38%
    12:00 +26°C° 0 mm 3 mps 623 mmHg 36%
    13:00 +26°C° 0 mm 3 mps 623 mmHg 37%
    14:00 +26°C° 0 mm 4 mps 623 mmHg 38%
    15:00 +26°C° 0 mm 4 mps 622 mmHg 39%
    16:00 +25°C° 0.1 mm 5 mps 622 mmHg 41%
    17:00 +23°C° 0.1 mm 5 mps 622 mmHg 43%
    18:00 +22°C° 0.1 mm 5 mps 621 mmHg 45%
    19:00 +21°C° 0 mm 4 mps 621 mmHg 48%
    20:00 +19°C° 0 mm 4 mps 621 mmHg 51%
    21:00 +18°C° 0 mm 3 mps 621 mmHg 55%
    22:00 +17°C° 0 mm 3 mps 621 mmHg 57%
    23:00 +17°C° 0 mm 3 mps 621 mmHg 58%

    Day after tomorrow, 20 June, Thursday

    Time Temperature Precipitation Wind Pressure Humidity
    00:00 +16°C° 0 mm 3 mps 621 mmHg 60%
    01:00 +16°C° 0 mm 2 mps 621 mmHg 61%
    02:00 +16°C° 0 mm 2 mps 621 mmHg 63%
    03:00 +15°C° 0 mm 2 mps 620 mmHg 64%
    04:00 +16°C° 0 mm 2 mps 621 mmHg 61%
    05:00 +17°C° 0 mm 2 mps 621 mmHg 59%
    06:00 +17°C° 0 mm 2 mps 621 mmHg 56%
    07:00 +19°C° 0 mm 2 mps 622 mmHg 51%
    08:00 +20°C° 0 mm 2 mps 622 mmHg 45%
    09:00 +23°C° 0 mm 2 mps 623 mmHg 40%
    10:00 +24°C° 0 mm 3 mps 623 mmHg 38%
    11:00 +25°C° 0 mm 3 mps 623 mmHg 36%
    12:00 +26°C° 0 mm 3 mps 623 mmHg 34%
    13:00 +26°C° 0 mm 4 mps 622 mmHg 35%
    14:00 +27°C° 0 mm 4 mps 622 mmHg 35%
    15:00 +27°C° 0 mm 4 mps 622 mmHg 35%
    16:00 +26°C° 0 mm 4 mps 621 mmHg 38%
    17:00 +25°C° 0 mm 4 mps 621 mmHg 41%
    18:00 +23°C° 0 mm 5 mps 621 mmHg 44%
    19:00 +22°C° 0 mm 4 mps 621 mmHg 46%
    20:00 +20°C° 0 mm 4 mps 620 mmHg 48%
    21:00 +19°C° 0 mm 3 mps 620 mmHg 50%
    22:00 +18°C° 0 mm 3 mps 620 mmHg 51%
    23:00 +18°C° 0 mm 3 mps 620 mmHg 53%

    21 June, Friday

    Time Temperature Precipitation Wind Pressure Humidity
    00:00 +17°C° 0 mm 3 mps 620 mmHg 54%
    01:00 +17°C° 0 mm 3 mps 620 mmHg 55%
    02:00 +16°C° 0 mm 3 mps 620 mmHg 56%
    03:00 +16°C° 0 mm 3 mps 619 mmHg 57%
    04:00 +17°C° 0 mm 2 mps 620 mmHg 56%
    05:00 +17°C° 0 mm 2 mps 620 mmHg 54%
    06:00 +18°C° 0 mm 2 mps 620 mmHg 53%
    07:00 +19°C° 0 mm 2 mps 621 mmHg 49%
    08:00 +21°C° 0 mm 2 mps 621 mmHg 45%
    09:00 +23°C° 0 mm 2 mps 622 mmHg 41%
    10:00 +24°C° 0 mm 3 mps 622 mmHg 40%
    11:00 +25°C° 0 mm 3 mps 622 mmHg 38%
    12:00 +26°C° 0 mm 3 mps 622 mmHg 37%
    13:00 +26°C° 0.2 mm 4 mps 622 mmHg 39%
    14:00 +26°C° 0.2 mm 4 mps 621 mmHg 41%
    15:00 +25°C° 0.2 mm 4 mps 621 mmHg 43%
    16:00 +23°C° 0.1 mm 4 mps 621 mmHg 46%
    17:00 +22°C° 0.1 mm 4 mps 621 mmHg 49%
    18:00 +21°C° 0.1 mm 5 mps 621 mmHg 52%
    19:00 +20°C° 0 mm 4 mps 621 mmHg 55%
    20:00 +19°C° 0 mm 4 mps 621 mmHg 58%
    21:00 +18°C° 0 mm 3 mps 621 mmHg 62%
    22:00 +17°C° 0 mm 3 mps 621 mmHg 63%
    23:00 +17°C° 0 mm 3 mps 621 mmHg 64%

    22 June, Saturday

    Time Temperature Precipitation Wind Pressure Humidity
    00:00 +16°C° 0 mm 3 mps 621 mmHg 66%
    01:00 +16°C° 0 mm 2 mps 621 mmHg 67%
    02:00 +16°C° 0 mm 2 mps 621 mmHg 68%
    03:00 +15°C° 0 mm 2 mps 621 mmHg 69%
    04:00 +16°C° 0 mm 2 mps 621 mmHg 68%
    05:00 +16°C° 0 mm 2 mps 622 mmHg 66%
    06:00 +17°C° 0 mm 2 mps 622 mmHg 65%
    07:00 +18°C° 0 mm 2 mps 623 mmHg 60%
    08:00 +20°C° 0 mm 3 mps 623 mmHg 55%
    09:00 +21°C° 0 mm 3 mps 624 mmHg 49%
    10:00 +24°C° 0 mm 3 mps 624 mmHg 47%
    11:00 +25°C° 0 mm 3 mps 624 mmHg 44%
    12:00 +26°C° 0 mm 3 mps 625 mmHg 41%
    13:00 +26°C° 0 mm 4 mps 624 mmHg 40%
    14:00 +27°C° 0 mm 4 mps 624 mmHg 39%
    15:00 +27°C° 0 mm 4 mps 624 mmHg 39%
    16:00 +26°C° 0 mm 4 mps 624 mmHg 40%
    17:00 +26°C° 0 mm 4 mps 624 mmHg 42%
    18:00 +25°C° 0 mm 4 mps 623 mmHg 43%
    19:00 +22°C° 0 mm 4 mps 623 mmHg 47%
    20:00 +21°C° 0 mm 4 mps 623 mmHg 51%
    21:00 +19°C° 0 mm 3 mps 623 mmHg 56%
    22:00 +19°C° 0 mm 3 mps 623 mmHg 56%
    23:00 +18°C° 0 mm 3 mps 623 mmHg 57%

    23 June, Sunday

    Time Temperature Precipitation Wind Pressure Humidity
    00:00 +18°C° 0 mm 3 mps 623 mmHg 58%
    01:00 +17°C° 0 mm 3 mps 623 mmHg 57%
    02:00 +17°C° 0 mm 2 mps 623 mmHg 57%
    03:00 +17°C° 0 mm 2 mps 622 mmHg 57%
    04:00 +18°C° 0 mm 2 mps 623 mmHg 56%
    05:00 +18°C° 0 mm 2 mps 623 mmHg 54%
    06:00 +19°C° 0 mm 2 mps 624 mmHg 53%
    07:00 +21°C° 0 mm 2 mps 624 mmHg 48%
    08:00 +23°C° 0 mm 2 mps 625 mmHg 44%
    09:00 +25°C° 0 mm 3 mps 625 mmHg 40%
    10:00 +26°C° 0 mm 3 mps 626 mmHg 38%
    11:00 +27°C° 0 mm 3 mps 626 mmHg 37%
    12:00 +28°C° 0 mm 4 mps 626 mmHg 35%
    13:00 +28°C° 0 mm 4 mps 625 mmHg 35%
    14:00 +29°C° 0 mm 4 mps 625 mmHg 35%
    15:00 +29°C° 0 mm 5 mps 625 mmHg 35%
    16:00 +28°C° 0 mm 5 mps 624 mmHg 37%
    17:00 +27°C° 0 mm 5 mps 624 mmHg 39%
    18:00 +26°C° 0 mm 5 mps 623 mmHg 42%
    19:00 +23°C° 0 mm 4 mps 623 mmHg 48%
    20:00 +22°C° 0 mm 4 mps 623 mmHg 54%
    21:00 +20°C° 0 mm 4 mps 623 mmHg 60%
    22:00 +20°C° 0 mm 4 mps 623 mmHg 60%
    23:00 +19°C° 0 mm 4 mps 623 mmHg 61%
    Show more